Regional Weather Roundup
Issued by NWS

Home | Current Version | Previous Version | Text Only | Print | Product List | Glossary Off
Versions: 1 2 3 4 5 6 7 8 9 10 11 12 13 14 15 16 17 18 19 20 21 22 23 24 25 26 27 28 29 30 31 32 33 34 35 36 37 38 39 40 41 42 43 44 45 46 47 48 49 50

000
ASUS45 KCYS 220710
RWRWY

WYOMING REGIONAL WEATHER ROUNDUP
NATIONAL WEATHER SERVICE CHEYENNE WY
100 AM MDT TUE AUG 22 2017

NOTE:  "FAIR" INDICATES FEW OR NO CLOUDS BELOW 12,000 FEET
WITH NO SIGNIFICANT WEATHER AND/OR OBSTRUCTIONS TO VISIBILITY.

WYZ001-220800-
YELLOWSTONE NATIONAL PARK

CITY           SKY/WX    TMP DP  RH WIND       PRES   REMARKS
LK YELLOWSTONE   N/A     41  34  76 CALM      30.43S
W YELLOWSTONE  NOT AVBL

$$
WYZ002>013-054>058-071-098>099-220800-
NORTHERN WYOMING

CITY           SKY/WX    TMP DP  RH WIND       PRES   REMARKS
JACKSON        FAIR      45  31  58 N5        30.34R
CODY           FAIR      60  38  43 SW5       30.27S
GREYBULL       FAIR      59  35  40 CALM      30.18R
WORLAND        FAIR      56  36  47 S5        30.20R
SHERIDAN       FAIR      50  40  68 S3        30.22F
BUFFALO        FAIR      60  31  33 SW5       30.29S
GILLETTE       FAIR      50  35  56 S6        30.26R
HULETT         FAIR      59  36  41 CALM      30.26S
NEWCASTLE      FAIR      54  32  43 E3        30.27S

$$
WYZ014>020-022>026-101>103-220800-
CENTRAL WYOMING

CITY           SKY/WX    TMP DP  RH WIND       PRES   REMARKS
BIG PINEY      FAIR      46  25  43 N3        30.36R
PINEDALE       FAIR      39  28  65 W5        30.37S
DUBOIS         FAIR      50  28  43 NW6       30.38S
LANDER           N/A    N/A N/A N/A MISG      30.29F
RIVERTON       FAIR      62  37  39 E9        30.27S
CASPER         FAIR      51  36  56 CALM      30.27R
DOUGLAS        FAIR      53  41  63 SE7       30.28S

$$
WYZ021-027>030-104>119-220800-
SOUTHERN WYOMING

CITY           SKY/WX    TMP DP  RH WIND       PRES   REMARKS
EVANSTON       FAIR      61  36  39 S6        30.36S
KEMMERER         N/A     54  30  40 NW5       30.38S
FORT BRIDGER   FAIR      62  29  29 SW6       30.38S
ROCK SPRINGS   FAIR      64  33  31 E3        30.32S
RAWLINS        FAIR      57  38  48 NE9       30.32R
SARATOGA       FAIR      52  37  58 CALM      30.33S
LARAMIE        FAIR      54  42  64 S8        30.37S
CHEYENNE       FAIR      57  44  62 SE6       30.34S
TORRINGTON     FAIR      58  45  62 CALM      30.24S
PINE BLUFFS    FAIR      52  45  76 CALM      30.30R

$$



USA.gov is the U.S. government's official web portal to all federal, state and local government web resources and services.